Location: Palm Bay
(27.9400°N, 80.7200°W)
Time: 05:04:52
(UTC-04:00)

Daily predictions for brighter satellites

Satellite Brightness Start Highest point End
(mag) Time Altitude Azimuth Time Altitude Azimuth Time Altitude Azimuth
ATLAS 2AS CENTAUR R/B 4.0 00:05:37 22° WSW 00:09:43 39° NW 00:17:01 10° NNE
Terra 4.2 00:22:18 18° NW 00:22:18 18° NW 00:23:53 10° NW
Cosmos 2237 Rocket 3.7 00:18:22 10° NNW 00:21:31 32° NW 00:21:31 32° NW
ATLAS 3B R/B 3.4 00:26:13 10° NNW 00:31:15 46° N 00:31:15 46° N
Lacrosse 4 Rocket 4.4 00:28:53 10° N 00:29:44 15° N 00:29:44 15° N
COSMOS 2455 4.3 00:50:16 10° NNW 00:53:21 32° NNW 00:53:21 32° NNW
SL-16 R/B 4.3 01:11:59 10° NW 01:13:53 21° NW 01:13:53 21° NW
CZ-3 Stage 3 4.3 01:44:04 10° W 02:01:23 50° WNW 02:01:23 50° WNW
CZ-4C R/B 3.3 02:08:58 10° NNW 02:15:06 61° N 02:15:06 61° N
Cosmos 1844 Rocket 4.1 02:41:38 33° NE 02:41:38 33° NE 02:45:00 10° NNE
Cosmos 2263 Rocket 4.1 02:44:27 22° NW 02:44:27 22° NW 02:47:22 10° N
Cosmos 2278 Rocket 3.5 03:04:52 33° E 03:04:52 33° E 03:08:58 10° NE
NOSS 3-2 (C) 4.0 02:59:44 10° NNW 03:06:35 68° WNW 03:06:35 68° WNW
COSMOS 2406 3.9 03:05:17 10° N 03:10:25 51° NE 03:10:25 51° NE
Resurs 1-4 Rocket 4.0 03:07:48 10° NE 03:11:38 20° E 03:11:47 20° E
ARIANE 5 R/B 4.1 03:09:25 10° NE 03:13:00 27° E 03:13:00 27° E
ADEOS 4.1 03:21:49 10° NNE 03:25:57 56° NNE 03:25:57 56° NNE
Cosmos 1536 4.1 03:54:17 38° N 03:54:17 38° N 03:56:51 10° N
UNKNOWN OBJECT B 4.0 03:57:33 10° NNE 04:01:16 39° E 04:01:16 39° E
Spot 4 Rocket 4.4 03:56:40 10° N 04:01:12 52° NW 04:01:12 52° NW
Cosmos 1934 Rocket 4.4 04:05:44 44° W 04:05:44 44° W 04:11:34 10° N
Atlas Centaur 2 4.4 04:06:54 22° SSE 04:08:32 23° SSE 04:14:46 10° E
CZ-2D R/B 2.1 04:05:13 10° NNE 04:10:43 84° ESE 04:11:41 62° S
Cosmos 1461 4.3 04:11:59 33° NW 04:11:59 33° NW 04:15:46 10° N
Meteor 1-19 Rocket 4.2 04:06:22 10° N 04:12:13 86° W 04:13:43 53° S
CZ-3C R/B 3.4 04:14:21 11° SE 04:14:21 11° SE 04:14:34 10° ESE
EO 1 Del DPAF 3.7 04:14:19 58° E 04:14:24 58° ENE 04:18:14 10° N
CZ-2D R/B 4.1 04:15:13 10° NNE 04:19:06 47° E 04:19:41 43° SE
Cosmos 1153 Rocket 4.4 04:17:36 50° SSW 04:19:22 78° W 04:25:47 10° N
IRS-1D 3.6 04:16:42 10° N 04:21:37 55° WNW 04:21:52 55° W
Cosmos 2061 Rocket 4.4 04:19:21 25° SSE 04:23:02 60° E 04:29:18 10° NNE
Cosmos 1844 Rocket 4.4 04:23:18 17° WNW 04:23:38 17° WNW 04:27:18 10° NNW
USA 234 3.1 04:21:27 10° SSE 04:27:56 72° SW 04:34:28 10° NW
GPS 2-15 Rocket1 4.4 04:31:40 26° SSE 04:31:40 26° SSE 04:34:37 10° ESE
MTI 4.2 04:34:04 57° ESE 04:34:21 60° ENE 04:37:37 10° N
Cosmos 1400 Rocket 4.1 04:35:33 27° NW 04:35:33 27° NW 04:38:08 10° NNW
Okean O Rocket 2.0 04:30:41 10° NNE 04:34:57 56° E 04:36:37 34° SSE
Cosmos 614 Rocket 3.9 04:30:46 10° NNW 04:35:55 83° ENE 04:40:01 16° SSE
SL-16 R/B 2.4 04:33:01 26° S 04:36:42 72° WSW 04:42:55 10° NNW
ASC 2 Rocket 3.2 04:37:06 52° SSW 04:37:20 53° S 04:41:22 10° ESE
Cosmos 1455 Rocket 3.3 04:39:08 49° W 04:39:24 50° W 04:43:43 10° N
Yuri Rocket 3.4 04:36:26 29° W 04:39:34 89° S 04:44:17 10° E
Cosmos 1025 Rocket 4.2 04:41:20 10° NNW 04:44:13 27° WNW 04:44:13 27° WNW
Cosmos 1626 Rocket 4.5 04:42:03 10° N 04:46:17 47° E 04:50:32 10° SSE
Cosmos 2297 4.1 04:46:00 36° WSW 04:47:47 48° WNW 04:53:16 10° N
Skynet4D Del rocket 3.4 04:45:28 33° W 04:47:54 75° S 04:53:27 10° ESE
Cosmos 2278 Rocket 3.6 04:46:43 21° W 04:47:55 23° WNW 04:52:18 10° NNW
Meteor 1-23 Rocket 4.3 04:43:34 10° NNW 04:49:06 55° W 04:51:44 30° SSW
CENTAUR R/B 3.1 04:41:46 10° NW 04:49:42 60° WSW 04:57:47 10° S
Cosmos 1110 Rocket 4.1 04:48:30 37° SW 04:50:23 59° WNW 04:55:38 10° N
Resurs 1-4 Rocket 2.9 04:46:41 10° N 04:51:27 35° WNW 04:52:51 30° WSW
IRS-1C Rocket 4.0 04:47:04 10° N 04:52:20 78° WNW 04:55:08 28° SSW
ARIANE 5 R/B 3.8 04:48:47 10° NNW 04:52:37 23° WNW 04:53:20 22° W
Cosmos 2016 Rocket 4.1 04:47:52 16° S 04:53:05 78° E 04:59:22 10° N
BREEZE-M DEB (TANK) 3.6 04:52:46 19° NW 04:53:18 20° NNW 04:55:29 10° NNE
ATLAS 5 CENTAUR R/B 2.9 04:47:37 10° NNW 04:53:46 65° ENE 05:00:13 10° SE
PSLV R/B 3.1 04:53:43 64° WSW 04:54:10 83° NNW 04:57:32 10° NE
CZ-2C R/B 4.2 04:50:58 10° SSE 04:55:38 64° ENE 05:00:21 10° N
CZ-4B DEB 4.4 04:51:08 10° NNE 04:56:42 71° ESE 05:01:17 15° S
Palapa B4 Rocket 4.4 04:57:01 23° S 04:57:45 24° SSE 05:02:02 10° ESE
Cosmos 1315 Rocket 4.0 05:02:18 26° W 05:02:33 26° W 05:05:58 10° NNW
Thor Agena Rocket 4.3 04:58:49 10° SSE 05:03:53 55° ENE 05:08:54 10° N
ASTRO F (AKARI) 4.5 05:04:05 13° SSE 05:06:59 78° ENE 05:10:26 10° N
Cosmos 1725 Rocket 4.4 05:01:26 10° S 05:07:39 66° E 05:13:49 10° NNE
Fermi 3.7 05:07:36 31° WSW 05:09:21 63° S 05:13:24 10° E
Meteor 1-12 Rocket 4.5 05:08:12 21° SSW 05:12:01 55° W 05:17:42 10° N
CZ-4B R/B 3.2 05:06:33 10° N 05:12:13 72° WNW 05:16:45 16° SSW
Cosmos 2082 Rocket 2.6 05:07:57 10° NNW 05:13:39 67° ENE 05:19:17 10° SSE
ADEOS II 3.6 05:09:19 10° NNE 05:14:06 34° E 05:18:50 10° SSE
CZ-4B R/B 3.1 05:10:04 10° N 05:14:35 77° WNW 05:17:56 17° SSW
Delta R/B 2.0 05:17:47 44° SSE 05:17:47 44° SSE 05:20:25 10° E
Cosmos 2173 Rocket 4.4 05:14:08 20° SW 05:17:54 42° W 05:23:41 10° N
Cosmos 1975 3.4 05:17:14 25° SW 05:18:58 38° W 05:22:43 10° NNW
Cosmos 1346 Rocket 3.3 05:15:15 10° N 05:19:14 63° E 05:23:11 10° SSE
Cosmos 2285 Rocket 4.0 05:14:07 14° SSW 05:19:36 83° WNW 05:25:56 10° NNE
Cosmos 1743 3.5 05:16:43 10° S 05:20:26 51° E 05:24:09 10° NNE
NOSS 8 (E) 4.4 05:22:19 20° SSW 05:24:40 88° ESE 05:28:08 10° NNE
Cosmos 1500 3.3 05:23:40 16° SSW 05:26:36 60° W 05:30:27 10° N
Cosmos 1802 Rocket 4.5 05:23:19 16° SW 05:27:45 40° W 05:33:28 10° NNW
Cosmos 1515 3.6 05:28:27 10° N 05:32:16 86° W 05:36:06 10° S
Cosmos 1066 Rocket 4.2 05:35:21 10° N 05:40:49 82° E 05:46:10 10° S
Chunghua 1 4.5 05:42:04 10° WNW 05:45:51 89° NNE 05:49:35 10° ESE
Feng Yun 1-1 Rocket 4.4 05:46:59 10° N 05:52:51 71° WNW 05:58:34 10° SSW
Cosmos 1833 Rocket 2.7 05:50:06 10° NNW 05:55:39 65° WSW 06:01:11 10° S
Atlas Centaur 2 3.5 05:49:38 10° SW 05:57:59 57° SSE 06:05:49 10° E
Cosmos 1758 Rocket 4.3 05:54:16 10° N 05:58:40 59° E 06:03:05 10° SSE
Cosmos 1825 Rocket 3.5 05:55:30 10° N 05:59:51 71° W 06:04:13 10° S
Cosmos 1726 Rocket 3.7 05:56:20 10° SSW 06:00:42 59° W 06:05:04 10° N
Okean-O 3.2 05:57:43 10° N 06:01:50 39° WNW 06:05:58 10° SW
BREEZE-M DEB (TANK) 3.4 05:55:00 10° SW 06:02:44 78° SE 06:06:44 10° NE
Cosmos 2058 Rocket 3.0 06:01:39 10° SSW 06:06:00 70° W 06:10:20 10° N
NOAA 6 4.5 06:01:03 10° NNE 06:06:11 67° ESE 06:11:15 10° S
